Temperature
13 13 13 13 13 13 13 13 13 12 12 12 12 12 12 12 12 12 12 12 12 12 12 12 12 12 12 12 12 12 12 12 12 12 12 12 12 12 12 12 12 12 12
13 13 13 13 13 13 13 12 12 12 12 12 12 12 12 12 12 12 12 12 12 12 11 11 12 12 12 12 11 11 11 11 11 11 12 12 12 12 12 12 12 12 12
13 13 13 12 13 13 13 12 12 12 12 12 12 12 12 12 11 11 11 11 11 11 11 11 11 11 11 11 11 11 11 11 11 11 11 11 11 11 11 11 11 11 11
13 13 12 12 12 12 12 12 12 12 12 12 11 11 11 11 11 11 11 11 11 11 11 11 11 11 11 11 11 10 10 10 10 10 10 11 11 11 11 11 11 11 11
12 12 12 12 12 12 12 12 12 12 11 11 11 11 11 11 11 10 10 10 10 10 10 10 10 10 10 10 10 10 10 10 10 10 10 10 10 10 10 10 10 10 10
12 12 12 12 12 12 12 12 11 11 11 11 11 11 11 11 10 10 10 10 10 10 10 10 10 10 10 10 10 10 10 9 9 9 9 10 10 10 10 10 10 10 10
11 12 11 11 11 11 11 11 11 11 11 10 10 10 10 10 10 10 10 10 10 9 9 9 9 9 9 9 9 9 9 9 9 9 9 9 9 9 9 9 9 9 9
11 11 11 11 11 11 11 11 11 10 10 10 9 9 9 9 10 10 9 9 9 9 9 9 9 9 9 9 9 9 9 9 9 9 8 8 8 8 8 8 9 9 9
11 11 10 10 10 10 10 10 10 10 10 9 9 8 8 8 8 9 9 9 9 9 8 8 8 8 8 8 8 8 8 8 8 8 8 8 8 8 8 8 8 8 8
10 10 10 10 10 10 10 10 10 9 9 9 9 8 8 8 7 8 8 8 8 8 8 8 8 8 8 8 8 8 8 8 8 8 8 8 7 7 7 7 7 7 8
10 9 9 9 9 9 9 9 9 9 9 9 8 8 8 7 7 7 7 8 8 8 8 8 8 7 7 7 7 7 7 7 7 7 7 7 7 7 7 7 7 7 7
9 9 9 9 9 9 9 9 9 9 8 8 8 8 7 7 7 6 6 6 7 7 7 7 7 7 7 7 7 7 7 7 7 7 7 7 7 7 7 7 7 7 7
9 9 9 9 8 8 8 8 8 8 8 8 8 7 7 7 6 6 6 6 6 6 7 7 7 6 6 6 6 6 6 6 6 6 6 6 6 6 6 6 6 6 6
9 8 8 8 8 8 8 8 8 8 8 7 7 7 7 7 6 6 6 5 5 5 6 6 6 6 6 6 6 6 6 5 6 6 6 6 6 6 6 6 6 6 6
8 8 8 8 8 8 8 8 7 7 7 7 7 7 6 6 6 6 5 5 4 4 4 5 5 6 6 6 5 5 5 5 5 5 5 5 5 5 5 5 5 5 5
8 8 8 7 7 7 7 7 7 7 6 6 6 6 6 6 6 5 5 5 4 4 4 4 5 5 5 5 5 5 5 5 5 5 5 4 4 4 4 5 5 5 4
7 7 7 7 7 7 7 6 6 6 6 6 5 5 5 5 5 5 5 5 4 4 4 4 4 4 4 4 4 4 4 4 4 4 4 4 4 4 4 4 4 4 4
7 7 7 6 6 6 6 6 6 5 5 5 5 5 5 5 5 5 4 4 4 4 3 3 4 4 4 4 3 3 4 4 4 3 3 3 3 3 3 3 3 3 3
7 6 6 6 6 6 5 5 5 5 5 4 4 4 4 4 4 4 4 4 3 3 3 3 3 3 3 3 3 3 3 3 3 3 3 3 3 3 3 3 3 3 3
6 6 6 6 5 5 5 5 5 4 4 4 4 4 4 4 4 3 3 3 3 3 2 2 2 3 3 2 2 3 3 3 3 2 2 2 2 2 2 2 2 2 2
6 6 5 5 5 5 5 4 4 4 4 4 4 3 3 3 3 3 3 3 2 2 2 2 2 2 2 2 2 2 2 2 2 2 2 2 2 2 2 2 2 2 2
5 5 5 5 5 4 4 4 4 4 4 3 3 3 3 3 3 3 2 2 2 2 2 2 2 2 2 2 1 1 1 1 1 1 1 1 1 1 1 1 1 1 1
5 4 4 4 4 4 4 4 3 3 3 3 3 3 3 2 2 2 2 2 2 2 1 1 1 1 1 1 1 1 0 0 0 0 0 1 1 1 1 1 1 1 1
4 4 4 4 4 3 3 3 3 3 3 3 2 2 2 2 2 2 1 1 1 1 1 1 1 1 1 0 0 -0 -0 -0 -0 0 -0 -0 0 0 0 1 0 0 0
3 3 3 3 3 3 3 3 2 2 2 2 2 2 1 1 1 1 1 1 1 1 1 1 1 1 0 0 -0 -0 -1 -1 -1 -0 -1 -1 -0 -0 0 0 0 -0 -0
3 3 3 3 3 3 2 2 2 2 2 1 1 1 1 1 1 1 0 0 1 1 1 1 0 0 0 0 -0 -1 -1 -1 -2 -1 -1 -1 -1 -1 -1 -1 -1 -1 -1
Wind_Speed
2 3 2 2 3 3 3 3 4 3 2 3 3 3 2 2 2 1 2 3 2 0 1 2 3 4 4 3 4 4 4 4 5 4 5 5 5 6 7 7 8 8 8
4 3 2 2 3 3 4 4 4 3 2 2 2 2 3 3 2 3 2 1 1 1 1 2 3 3 4 4 4 4 4 5 5 5 5 6 6 6 7 8 8 9 9
4 3 2 2 3 4 4 4 4 3 2 2 2 2 2 3 2 2 2 1 1 1 1 2 3 4 4 4 4 4 5 5 5 6 6 7 7 7 7 8 8 8 8
4 4 2 2 4 5 4 2 2 3 3 2 2 2 2 2 2 2 2 2 2 1 1 2 2 3 4 5 5 5 5 6 6 6 7 7 8 8 8 8 8 8 8
5 5 3 3 4 3 2 2 3 2 3 3 3 2 2 2 1 1 2 3 3 3 2 2 2 2 3 4 6 6 6 7 7 7 7 8 8 9 9 9 9 9 9
6 5 3 3 4 2 2 2 2 2 2 3 3 3 2 2 1 0 1 2 3 3 2 2 2 2 3 4 5 6 7 8 8 8 9 9 9 9 10 10 9 9 9
4 4 3 2 3 2 2 2 2 2 2 3 2 2 3 2 1 1 1 1 1 2 2 2 2 2 2 3 5 6 7 8 8 9 10 10 9 10 10 10 10 9 10
3 3 3 2 2 2 3 3 2 2 2 3 2 1 2 2 2 1 1 0 0 1 2 2 2 2 2 2 4 6 7 8 9 9 10 10 10 11 11 11 11 10 10
2 3 2 2 2 2 2 2 2 2 2 2 2 1 1 2 2 2 1 0 1 1 1 1 2 2 2 1 2 5 6 8 9 10 11 11 11 11 12 12 11 10 10
2 2 1 1 1 1 2 2 2 1 1 1 2 1 1 1 1 2 2 1 1 2 1 1 1 2 3 2 2 4 7 8 9 10 11 12 12 12 12 12 11 10 9
2 2 0 0 0 0 1 2 2 2 1 1 1 1 2 2 2 2 4 3 3 2 1 1 0 1 2 2 2 5 7 8 10 11 12 12 12 12 12 12 11 11 10
1 2 2 1 1 0 0 1 1 1 1 2 1 1 1 1 2 2 3 4 4 3 3 2 1 1 1 2 3 5 7 9 10 11 12 12 12 12 13 13 12 10 9
1 2 2 2 1 1 1 1 1 2 2 2 2 2 2 2 2 2 3 4 4 4 2 2 1 1 1 2 3 6 7 8 9 11 12 12 12 12 12 13 12 10 9
2 2 2 2 2 2 2 1 1 2 2 2 2 2 2 2 2 2 2 3 4 4 3 3 1 0 1 3 5 6 6 9 10 11 11 11 12 12 11 12 12 11 10
1 1 2 2 2 2 2 2 2 2 2 2 3 3 2 2 2 2 2 2 3 5 5 3 2 1 2 3 5 6 7 9 10 11 11 11 11 11 11 11 11 10 10
2 2 2 3 3 3 3 3 3 3 3 3 3 3 3 3 2 2 2 2 2 4 5 3 3 3 3 4 7 7 8 10 10 11 11 10 10 10 11 11 11 10 10
3 3 3 3 4 4 4 3 4 4 4 4 4 4 4 3 3 3 2 3 3 3 6 6 4 3 3 4 6 7 9 8 8 10 11 10 11 11 11 11 10 10 10
3 4 4 4 4 4 4 4 5 5 5 5 5 4 4 3 4 4 3 3 4 4 5 7 6 4 5 4 4 5 6 8 8 10 11 11 11 11 11 11 10 10 10
4 4 4 5 5 5 5 5 5 5 5 5 5 5 5 4 5 4 4 4 4 5 4 6 6 5 4 4 4 5 6 5 8 9 10 11 11 11 11 10 10 9 9
4 5 5 5 5 5 5 5 5 5 6 6 5 6 6 6 6 5 5 5 5 5 4 5 6 5 5 4 3 4 6 5 6 7 9 10 11 11 11 10 10 10 9
4 5 5 5 5 5 5 5 5 6 6 6 6 6 6 7 8 7 6 5 5 5 5 5 6 5 5 4 4 4 5 6 5 4 4 5 6 6 7 9 10 10 10
4 4 5 5 6 5 7 9 7 6 6 6 7 6 7 7 9 11 11 10 8 7 6 6 6 7 7 6 5 4 4 5 5 3 3 6 5 5 5 6 9 10 10
5 5 5 6 6 7 9 10 10 7 6 7 7 7 7 7 8 7 9 11 11 13 12 8 8 9 8 6 5 5 5 6 7 5 4 6 4 5 5 7 10 10 9
5 5 6 6 6 7 10 10 11 8 7 7 7 7 8 8 7 7 6 7 8 9 10 9 8 9 8 6 5 5 5 5 5 4 3 5 4 4 5 6 9 10 10
5 5 5 6 7 7 9 10 9 5 6 8 8 8 8 8 10 10 7 8 8 8 9 11 12 11 12 10 6 3 3 4 6 4 2 3 4 4 4 4 6 9 10
5 6 6 6 7 7 9 10 10 5 6 7 7 7 10 11 11 11 7 7 9 9 6 6 6 7 7 7 8 5 5 5 5 5 3 2 3 2 4 4 3 5 6
Wind_Direction
66 47 36 34 33 10 360 336 326 328 335 336 329 333 325 317 326 56 104 138 154 207 298 311 315 315 308 313 320 330 336 334 332 325 324 312 305 304 300 298 297 295 292
46 45 36 23 23 7 351 341 340 340 324 323 316 323 329 331 2 37 84 132 151 199 286 322 323 320 319 322 330 333 332 329 326 324 322 320 313 309 304 301 298 293 292
42 47 40 20 16 5 1 356 346 348 322 320 320 325 345 348 2 24 36 83 146 220 276 304 317 324 324 322 322 325 329 329 330 327 322 319 316 312 303 301 299 297 295
38 46 51 24 6 9 8 355 347 356 344 342 335 326 332 339 342 14 25 45 49 32 355 322 325 335 333 329 325 320 318 320 319 321 320 316 312 310 309 306 303 300 299
32 48 51 17 8 18 17 356 6 8 353 342 322 313 307 300 296 21 45 55 49 49 40 17 4 350 344 343 339 335 331 325 322 319 315 315 311 307 305 303 303 301 300
34 41 48 22 8 29 23 8 1 5 352 327 320 319 294 263 236 188 66 60 51 47 48 43 5 335 344 342 337 334 330 327 322 319 316 311 307 305 303 300 300 300 299
40 43 39 25 20 39 21 8 10 1 351 348 351 326 304 260 169 144 99 68 50 47 44 49 25 12 357 344 332 329 326 323 322 322 319 315 311 310 307 304 303 304 303
49 46 36 26 28 29 25 20 15 356 349 14 4 327 325 326 335 289 117 133 31 42 55 39 30 15 21 0 333 331 330 329 327 325 324 321 317 315 308 303 301 300 302
75 54 26 21 24 30 34 20 13 20 343 340 15 13 349 303 317 295 272 221 17 344 335 52 36 354 336 354 336 332 330 329 327 324 323 323 321 318 314 308 303 303 304
123 85 23 15 25 24 17 4 27 4 359 314 325 352 306 295 297 304 301 306 320 303 309 341 7 353 338 351 354 342 333 328 326 324 323 322 321 319 317 317 314 311 311
160 152 170 340 7 24 25 4 350 344 338 302 306 316 317 313 276 269 287 300 305 280 278 276 278 345 327 330 329 330 328 327 323 320 319 322 324 326 324 322 318 318 315
169 181 191 210 231 227 33 289 294 299 279 280 287 280 274 285 300 291 287 293 290 283 280 250 236 251 307 315 310 326 322 319 318 318 318 320 323 327 326 322 318 316 317
202 210 204 212 218 220 227 240 263 270 269 268 266 270 280 275 289 293 289 292 294 291 273 260 216 211 335 336 319 323 317 314 313 314 316 317 321 323 324 324 318 313 315
220 199 207 213 221 226 236 246 258 259 262 264 270 267 269 272 275 275 274 290 299 292 273 267 267 189 342 320 313 318 315 312 309 309 312 314 317 318 320 321 319 316 314
224 211 212 224 227 223 227 239 246 255 256 251 253 258 259 262 259 261 261 254 257 284 286 273 279 285 303 300 307 305 302 303 305 306 305 306 308 310 312 314 315 314 314
226 231 232 234 235 230 222 226 243 250 248 250 241 248 258 263 266 258 252 257 248 252 274 283 283 288 297 304 305 299 295 299 297 298 301 302 304 305 305 306 308 308 309
230 232 234 235 236 234 228 224 232 240 247 255 249 240 248 252 258 261 254 253 255 252 268 285 289 293 293 290 298 292 292 289 289 294 295 296 300 301 302 303 303 302 305
234 235 236 236 239 238 233 231 239 239 242 249 252 247 249 251 252 253 251 251 253 251 257 278 289 290 281 276 284 292 295 294 289 292 293 294 294 295 294 296 296 295 296
237 239 236 235 238 238 237 238 239 242 242 244 246 247 248 245 251 249 248 249 252 259 251 266 280 287 287 290 293 296 294 288 289 290 293 294 294 293 290 288 290 290 291
239 239 238 237 236 237 237 240 240 244 247 248 245 245 246 242 245 246 249 248 251 256 258 263 272 282 285 290 288 290 299 294 292 293 290 290 290 289 285 284 286 285 284
247 246 245 245 241 238 236 234 239 247 251 253 253 249 247 244 244 247 252 247 247 253 257 261 268 278 279 286 281 280 287 298 292 284 293 291 288 281 274 277 281 281 279
255 254 252 248 245 246 243 239 238 247 250 252 258 258 255 249 251 255 256 255 248 249 251 254 263 265 270 270 273 277 285 299 294 294 300 290 282 275 270 261 274 280 283
259 255 254 252 250 247 244 245 241 243 248 250 252 256 262 256 255 253 259 261 260 257 253 250 256 259 265 264 267 271 267 268 271 281 298 285 277 275 274 271 276 277 283
259 258 257 254 254 254 247 247 246 242 246 249 250 248 252 257 251 248 253 258 259 258 256 253 250 256 258 257 249 256 261 274 276 271 255 271 283 280 286 276 271 271 281
263 261 260 257 257 259 252 248 244 243 248 254 255 251 251 256 257 254 253 258 265 266 264 256 254 259 262 264 262 264 263 274 281 275 244 250 282 296 291 280 272 276 284
263 264 265 260 258 260 257 250 243 243 253 260 259 254 252 253 259 258 252 253 262 266 266 271 267 266 266 264 262 247 237 252 268 273 245 241 276 306 301 291 289 288 286
Height
1525 1526 1527 1527 1527 1528 1528 1528 1528 1528 1528 1528 1529 1529 1529 1529 1528 1528 1528 1528 1527 1527 1527 1526 1526 1526 1525 1525 1525 1524 1524 1524 1523 1523 1523 1522 1522 1522 1521 1521 1521 1520 1520
1524 1525 1525 1526 1526 1526 1526 1527 1526 1527 1527 1527 1527 1527 1527 1527 1527 1526 1526 1526 1525 1525 1524 1524 1524 1523 1523 1522 1522 1522 1521 1521 1521 1520 1520 1519 1519 1518 1518 1518 1517 1517 1517
1523 1523 1524 1524 1524 1525 1525 1525 1525 1525 1525 1525 1525 1525 1525 1525 1524 1524 1524 1524 1523 1523 1522 1522 1521 1521 1520 1520 1519 1519 1519 1518 1518 1517 1517 1516 1516 1515 1515 1515 1514 1514 1513
1521 1521 1522 1522 1523 1523 1523 1523 1523 1523 1523 1523 1523 1523 1523 1523 1522 1522 1522 1521 1521 1521 1520 1520 1519 1519 1518 1517 1517 1516 1516 1515 1515 1514 1514 1513 1513 1512 1511 1511 1511 1510 1510
1519 1520 1520 1521 1521 1521 1521 1521 1521 1522 1521 1521 1521 1520 1520 1520 1520 1520 1520 1519 1519 1519 1518 1518 1517 1516 1516 1515 1514 1514 1513 1512 1512 1511 1510 1510 1509 1508 1508 1507 1507 1506 1506
1517 1518 1518 1519 1519 1519 1519 1520 1520 1520 1519 1519 1518 1518 1518 1518 1518 1518 1518 1518 1517 1517 1516 1515 1515 1514 1513 1512 1512 1511 1510 1509 1508 1507 1507 1506 1505 1505 1504 1503 1503 1502 1502
1516 1516 1517 1517 1517 1517 1517 1517 1517 1518 1517 1517 1516 1516 1516 1516 1516 1516 1516 1516 1515 1514 1514 1513 1512 1511 1511 1510 1509 1508 1507 1506 1505 1504 1503 1502 1501 1500 1500 1499 1499 1498 1497
1514 1515 1516 1516 1515 1515 1516 1515 1515 1515 1515 1515 1515 1514 1514 1515 1514 1514 1514 1514 1513 1512 1511 1511 1510 1509 1508 1507 1506 1505 1504 1503 1502 1501 1500 1498 1497 1496 1496 1495 1494 1493 1493
1512 1513 1514 1514 1514 1514 1514 1514 1514 1513 1514 1514 1514 1514 1514 1513 1512 1512 1512 1511 1511 1510 1509 1508 1507 1506 1505 1504 1503 1502 1501 1500 1498 1497 1496 1495 1494 1493 1492 1491 1490 1489 1488
1510 1511 1512 1512 1512 1512 1512 1511 1511 1511 1511 1511 1511 1512 1512 1512 1511 1509 1509 1509 1508 1507 1506 1505 1504 1503 1502 1501 1500 1499 1498 1496 1495 1494 1493 1491 1490 1489 1488 1486 1485 1484 1483
1508 1510 1510 1510 1510 1510 1509 1509 1509 1509 1509 1509 1509 1509 1509 1509 1508 1508 1506 1505 1504 1504 1503 1502 1501 1500 1499 1498 1497 1495 1494 1493 1491 1490 1489 1487 1486 1485 1483 1482 1481 1479 1478
1507 1508 1508 1508 1508 1507 1507 1507 1507 1506 1506 1506 1506 1506 1506 1506 1505 1505 1503 1501 1500 1500 1500 1499 1498 1497 1496 1495 1493 1492 1490 1489 1487 1486 1485 1483 1482 1480 1479 1477 1476 1475 1473
1505 1506 1506 1506 1505 1505 1505 1505 1504 1504 1504 1504 1503 1503 1503 1503 1502 1502 1501 1499 1497 1496 1496 1495 1495 1494 1493 1491 1490 1488 1486 1485 1483 1482 1480 1479 1477 1476 1474 1472 1471 1470 1468
1503 1503 1503 1503 1503 1503 1503 1502 1502 1501 1501 1501 1501 1500 1500 1499 1499 1498 1498 1497 1494 1492 1492 1491 1490 1490 1489 1487 1485 1484 1482 1481 1479 1477 1476 1474 1472 1471 1469 1468 1466 1465 1464
1501 1500 1500 1500 1500 1500 1499 1499 1499 1498 1498 1498 1497 1497 1496 1496 1495 1495 1494 1494 1493 1490 1487 1486 1486 1485 1484 1483 1481 1479 1478 1476 1474 1473 1471 1469 1468 1466 1464 1463 1461 1460 1459
1498 1498 1497 1497 1496 1496 1496 1496 1495 1495 1495 1494 1494 1493 1492 1492 1491 1491 1490 1489 1489 1488 1484 1482 1482 1481 1480 1478 1477 1475 1473 1471 1470 1468 1466 1465 1463 1461 1460 1458 1457 1455 1454
1495 1494 1493 1493 1493 1493 1492 1492 1492 1491 1491 1490 1490 1489 1488 1488 1487 1487 1486 1485 1484 1483 1480 1478 1478 1477 1475 1474 1472 1470 1468 1466 1465 1463 1461 1459 1458 1456 1454 1453 1452 1450 1449
1491 1490 1490 1489 1489 1488 1488 1488 1488 1487 1487 1486 1486 1485 1484 1484 1483 1482 1481 1480 1479 1478 1477 1474 1472 1471 1470 1469 1467 1465 1464 1462 1460 1458 1456 1454 1452 1451 1449 1448 1446 1445 1444
1487 1486 1486 1485 1485 1484 1484 1484 1483 1483 1482 1482 1481 1480 1479 1479 1478 1477 1476 1475 1474 1473 1472 1470 1467 1467 1465 1464 1462 1460 1459 1457 1455 1453 1451 1449 1447 1446 1444 1442 1441 1439 1438
1482 1482 1481 1481 1480 1480 1480 1479 1479 1478 1477 1476 1476 1475 1475 1474 1473 1472 1471 1470 1469 1468 1467 1465 1463 1461 1460 1459 1457 1455 1453 1452 1450 1448 1446 1444 1442 1440 1439 1437 1436 1434 1433
1478 1477 1477 1476 1476 1475 1475 1474 1474 1473 1472 1471 1470 1470 1469 1469 1468 1467 1466 1465 1464 1462 1461 1460 1458 1456 1455 1454 1452 1450 1448 1446 1444 1443 1440 1439 1437 1435 1433 1432 1430 1429 1427
1473 1472 1472 1471 1471 1470 1470 1469 1469 1467 1466 1465 1465 1464 1463 1463 1462 1461 1460 1459 1458 1457 1456 1455 1453 1451 1450 1449 1447 1445 1443 1440 1438 1438 1435 1433 1432 1429 1428 1426 1425 1423 1422
1468 1467 1467 1466 1465 1465 1465 1464 1463 1462 1461 1460 1459 1458 1457 1457 1456 1455 1454 1453 1452 1451 1451 1450 1447 1446 1445 1443 1442 1440 1438 1436 1433 1432 1430 1426 1426 1424 1423 1421 1420 1418 1417
1463 1462 1462 1461 1460 1460 1460 1459 1458 1457 1455 1454 1454 1453 1452 1451 1450 1449 1448 1446 1445 1445 1444 1443 1442 1440 1439 1438 1436 1435 1433 1430 1428 1427 1426 1422 1420 1418 1417 1415 1414 1413 1411
1459 1458 1457 1456 1455 1454 1454 1453 1453 1451 1449 1448 1448 1447 1446 1445 1444 1443 1442 1440 1439 1438 1437 1436 1435 1434 1432 1432 1431 1429 1427 1425 1422 1421 1420 1418 1414 1412 1411 1409 1408 1407 1406
1454 1453 1452 1451 1449 1449 1448 1448 1447 1445 1443 1442 1441 1440 1439 1439 1438 1437 1436 1434 1432 1431 1430 1429 1428 1427 1426 1425 1424 1423 1422 1420 1417 1415 1414 1413 1410 1408 1405 1403 1403 1402 1401